Find Starlink 3689

NORAD ID: 51961 Int'l Des: 2022-025 Owner: SPXS Country: US Constellation: starlink decayed
LEOCIRCULAR
Vis

Historical Track — Jan 11, 2025

3D地球を読み込み中...

Starlink 3689について

説明を読み込み中...

高度履歴

Loading altitude history...

軌道要素

1 51961U 22025F 25011.28063358 .19743777 12561-4 31364-3 0 9991
2 51961 53.0319 95.2493 0002492 222.0293 241.3561 16.48279369158803
Epoch: Jan 11, 2025 • Age: 11627 hours

現在のステータス

Position data unavailable
打ち上げ日 Mar 9, 2022
運用期間 4.1 years
落下予定日 Jan 11, 2025
タイプ internet

技術仕様

分類 Payload
質量 297.00 kg
乾燥質量 275.00 kg
総質量 297.00 kg
長さ 0.20 m
直径 2.80 m
スパン 9.00 m
形状 Box + pan
製造者 SPXS
バスタイプ Starlink
フェーズステータス Unknown Transfer Status
所有者/国 SPXS/US

Most Searched